Location: DARK SKY Beskydy - Park tmavé oblohy, www.darkskybeskydy.cz
(49.4926°N, 18.5016°E)
Time: 04:23:15
(UTC+01:00)

N. Korean satellite - Pass Details

Date: 08 December 2022
Orbit: 407 x 441 km, 97.3° (Epoch: 05 February)

Event Time Altitude Azimuth Distance (km) Brightness Sun altitude
Rises 17:00:25 0° 199° (SSW) 2,467 10.8 -11.3°
Reaches altitude 10° 17:02:49 10° 217° (SW) 1,608 10.2 -11.7°
Maximum altitude 17:05:28 20° 267° (W) 1,119 9.4 -12.1°
Drops below altitude 10° 17:08:10 10° 317° (NW) 1,634 9.5 -12.5°
Sets 17:10:37 0° 335° (NNW) 2,520 10.3 -12.9°
